Flag for U.S.A. Weather past 2 weeks in St. Petersburg, Florida, U.S.A.

Now
82 °F

Sunny.


Feels Like: 89 °F
Forecast: 80 / 87 °F
Wind: 6 mph from Southwest

Location: Whitted Airport

Current Time: Aug 27, 2015 at 3:42:16 PM

Latest Report: Aug 27, 2015 at 2:53 PM


Visibility: 10 mi

Pressure: 29.92 "Hg

Humidity: 79%

Dew point: 75 °F

Location of St. PetersburgLocation

Historic Weather in St. Petersburg — Graph

°F

St. Petersburg temperature yesterday

Maximum temperature yesterday: 91 °F (at 12:53 PM)
Minimum temperature yesterday: 80 °F (at 9:53 PM)
Average temperature yesterday: 86 °F

Past Weeks' High & Low Weather Summary

 TemperatureHumidityPressure
High94 °F (Aug 22, 3:53 PM)88% (Aug 13, 4:53 PM)30.09 "Hg (Aug 13, 4:53 PM)
Low77 °F (Aug 15, 10:53 PM)50% (Aug 14, 4:53 PM)29.85 "Hg (Aug 24, 7:53 PM)
Average85 °F73%29.97 "Hg
* Reported Aug 12 1:53 PM — Aug 27 1:53 PM, St. Petersburg, Weather by CustomWeather, © 2015

Note: Actual official high and low records may vary slightly from our data, if they occured in-between our weather recording intervals... More about our weather records

Advertising

St. Petersburg weather history for previous 24 hours

 ConditionsComfort  
Time TempWeatherWind HumidityBarometerVisibility
1:53 PM
Thu, Aug 27
81 °FSunny.14 mph82%29.94 "Hg10 mi
12:53 PM80 °FPassing clouds.7 mph76%29.95 "Hg10 mi
11:53 AM80 °FSunny.12 mph81%29.97 "Hg10 mi
10:53 AM79 °FLight rain. Broken clouds.3 mph84%29.93 "Hg10 mi
9:53 AM78 °FThunderstorms. Scattered clouds.8 mph84%29.94 "Hg10 mi
8:53 AM77 °FPassing clouds.5 mph79%29.90 "Hg10 mi
7:58 AM79 °FThunderstorms. Fog.N/A88%29.93 "Hg1 mi
7:04 AM80 °FThundershowers. Passing clouds.9 mph81%29.90 "Hg10 mi
6:53 AM81 °FPassing clouds.7 mph82%29.89 "Hg10 mi
5:53 AM81 °FClear.12 mph79%29.87 "Hg10 mi
4:53 AM81 °FClear.10 mph79%29.87 "Hg10 mi
3:53 AM80 °FClear.12 mph81%29.86 "Hg10 mi
2:53 AM80 °FClear.8 mph85%29.89 "Hg10 mi
1:53 AM80 °FClear.6 mph81%29.91 "Hg10 mi
12:53 AM79 °FClear.8 mph84%29.94 "Hg10 mi
11:53 PM
Wed, Aug 26
80 °FClear.13 mph79%29.95 "Hg10 mi
10:53 PM80 °FClear.14 mph85%29.93 "Hg10 mi
9:53 PM80 °FThundershowers. Overcast.18 mph87%29.94 "Hg10 mi
8:53 PM82 °FThundershowers. Broken clouds.23 mph79%29.94 "Hg10 mi
7:53 PM88 °FSunny.8 mph63%29.89 "Hg10 mi
6:53 PM89 °FSunny.7 mph61%29.88 "Hg10 mi
5:53 PM89 °FPassing clouds.9 mph65%29.88 "Hg10 mi
4:53 PM90 °FSunny.9 mph59%29.88 "Hg10 mi
3:53 PM91 °FSunny.10 mph57%29.88 "Hg10 mi
Weather by CustomWeather, © 2015

See weather overviewHow to use our weather pages